Total_Precipitation_Accumulation
1.32 1.51 1.98 2.56 2.98 3.47 3.87 3.85 3.58 3.60 3.65 3.68 3.51 3.72 3.95 4.23 4.50 4.43 4.30 4.19 4.09 4.05 4.06 4.09 4.07 3.94 3.85 3.70 3.53 3.42 3.31 3.07 2.87 2.81 2.49 2.12 1.85 1.77 1.73 1.78 1.86 1.86 1.86
1.42 1.68 2.11 2.41 2.82 3.16 3.35 3.65 3.75 3.78 3.57 3.87 4.14 4.36 4.68 4.79 5.12 5.41 5.46 5.27 4.98 4.75 4.54 4.50 4.30 4.01 3.82 3.68 3.49 3.35 3.19 2.92 2.77 2.71 2.68 2.25 1.91 1.59 1.41 1.50 1.51 1.57 1.73
1.69 1.98 2.25 2.39 2.62 3.02 3.28 3.58 3.88 3.98 3.88 4.28 4.77 5.19 5.48 5.48 5.57 5.63 5.65 5.60 5.18 4.80 4.56 4.29 4.16 3.98 3.81 3.63 3.52 3.39 3.26 3.00 2.80 2.67 2.80 2.63 2.27 1.85 1.64 1.48 1.48 1.56 1.63
1.56 1.83 2.12 2.48 2.53 2.83 3.12 3.36 3.71 4.10 4.40 4.80 5.26 5.78 6.05 6.19 6.06 5.75 5.50 5.19 4.81 4.45 4.05 3.84 3.86 3.73 3.52 3.31 3.06 2.94 2.90 2.81 2.69 2.61 2.49 2.46 2.38 2.19 1.95 1.73 1.73 1.76 1.72
1.53 1.66 1.81 2.14 2.38 2.64 2.91 3.18 3.51 3.92 4.56 5.32 5.86 6.21 6.49 6.45 6.02 5.52 4.93 4.48 4.17 3.88 3.61 3.43 3.50 3.39 3.15 2.93 2.67 2.44 2.33 2.31 2.37 2.40 2.36 2.29 2.23 2.06 1.93 1.82 1.74 1.73 1.70
1.65 1.74 1.86 2.13 2.28 2.40 2.66 2.98 3.39 3.70 4.21 4.94 5.58 5.86 6.03 5.97 5.56 4.94 4.40 4.01 3.62 3.28 2.96 2.69 2.60 2.52 2.37 2.26 2.19 2.11 2.05 2.02 2.09 2.13 2.07 2.05 2.05 2.01 1.99 1.91 1.74 1.73 1.80
1.86 1.79 1.78 1.92 2.11 2.21 2.39 2.66 2.99 3.38 3.70 4.10 4.70 4.81 4.85 4.66 4.28 4.05 3.79 3.35 2.96 2.62 2.31 2.10 1.98 1.93 1.91 1.87 1.86 1.85 1.80 1.75 1.78 1.79 1.79 1.78 1.73 1.76 1.89 2.02 1.98 1.87 1.75
1.69 1.69 1.62 1.81 2.02 2.20 2.35 2.47 2.67 3.03 3.34 3.45 3.59 3.55 3.47 3.41 3.26 3.06 2.74 2.44 2.22 2.07 1.95 1.80 1.67 1.62 1.66 1.67 1.71 1.64 1.54 1.48 1.48 1.45 1.48 1.52 1.49 1.60 1.78 1.92 2.11 2.10 1.86
1.48 1.52 1.53 1.63 1.80 2.06 2.18 2.26 2.32 2.45 2.47 2.49 2.52 2.55 2.56 2.43 2.38 2.30 2.06 1.87 1.73 1.61 1.58 1.55 1.50 1.41 1.37 1.33 1.30 1.28 1.27 1.31 1.32 1.27 1.27 1.30 1.32 1.42 1.55 1.70 1.94 2.14 2.03
1.49 1.49 1.53 1.60 1.55 1.61 1.70 1.82 1.93 2.05 2.04 1.96 1.88 1.94 1.93 1.83 1.72 1.59 1.49 1.39 1.31 1.25 1.27 1.22 1.19 1.22 1.23 1.15 1.09 1.06 1.09 1.12 1.17 1.20 1.14 1.13 1.14 1.19 1.26 1.38 1.54 1.79 1.94
1.55 1.46 1.49 1.50 1.41 1.33 1.32 1.42 1.54 1.69 1.76 1.70 1.65 1.67 1.62 1.55 1.43 1.33 1.24 1.18 1.12 1.07 1.05 1.03 1.01 1.00 1.00 0.98 1.02 1.00 1.02 1.07 1.09 1.09 1.08 1.07 1.09 1.13 1.11 1.18 1.30 1.46 1.66
1.52 1.42 1.40 1.43 1.38 1.29 1.21 1.25 1.32 1.28 1.33 1.36 1.48 1.59 1.49 1.41 1.33 1.26 1.18 1.12 1.00 0.95 0.95 0.97 0.92 0.84 0.82 0.89 0.96 0.98 0.96 1.04 1.04 1.04 1.08 1.06 1.08 1.09 1.07 1.12 1.18 1.34 1.55
1.68 1.52 1.36 1.33 1.33 1.24 1.17 1.17 1.21 1.14 1.11 1.11 1.15 1.27 1.31 1.27 1.23 1.10 1.01 0.97 0.93 0.92 0.91 0.87 0.85 0.83 0.79 0.81 0.82 0.83 0.84 0.90 0.97 1.00 1.06 1.08 1.10 1.08 1.07 1.11 1.16 1.29 1.42
1.68 1.47 1.36 1.30 1.23 1.16 1.14 1.12 1.07 0.98 0.96 0.98 1.06 1.10 1.11 1.12 1.13 1.04 0.94 0.90 0.87 0.84 0.82 0.77 0.76 0.81 0.80 0.72 0.67 0.69 0.73 0.81 0.84 0.85 0.96 1.02 1.04 1.03 1.09 1.12 1.16 1.25 1.41
1.62 1.55 1.41 1.29 1.13 1.03 1.02 0.99 0.96 0.91 0.87 0.90 0.98 1.08 1.01 0.96 1.03 1.07 0.96 0.86 0.83 0.79 0.79 0.74 0.69 0.74 0.72 0.65 0.66 0.66 0.67 0.73 0.73 0.75 0.82 0.87 0.88 0.87 0.93 0.95 1.05 1.18 1.34
1.79 1.74 1.58 1.43 1.23 1.09 1.02 0.99 0.96 0.85 0.79 0.83 0.95 1.02 1.01 0.99 1.03 1.08 1.03 0.96 0.89 0.86 0.82 0.76 0.71 0.71 0.66 0.65 0.61 0.59 0.62 0.69 0.75 0.81 0.82 0.76 0.76 0.72 0.69 0.75 0.85 1.02 1.23
1.83 1.73 1.65 1.49 1.31 1.24 1.11 1.07 1.02 0.89 0.87 0.88 0.90 0.96 1.02 1.08 1.10 1.08 1.05 1.01 0.99 0.97 0.87 0.77 0.74 0.71 0.64 0.57 0.48 0.47 0.53 0.68 0.80 0.86 0.84 0.72 0.68 0.77 0.76 0.76 0.79 0.92 1.05
1.99 1.92 1.71 1.54 1.34 1.19 1.08 1.03 0.97 0.90 0.93 0.92 0.89 0.86 0.89 0.92 0.92 0.98 1.03 1.00 0.97 0.91 0.85 0.78 0.73 0.68 0.52 0.46 0.44 0.46 0.50 0.59 0.65 0.68 0.75 0.83 0.85 0.78 0.79 0.78 0.88 0.97 1.07
1.88 1.83 1.67 1.56 1.42 1.24 1.11 1.03 0.99 0.95 0.90 0.86 0.82 0.75 0.71 0.75 0.76 0.83 0.94 1.01 0.97 0.87 0.79 0.72 0.69 0.65 0.52 0.48 0.46 0.48 0.53 0.58 0.55 0.51 0.56 0.63 0.67 0.68 0.75 0.84 1.00 1.04 1.15
1.40 1.39 1.36 1.31 1.24 1.12 1.02 1.01 1.00 0.92 0.83 0.76 0.69 0.64 0.63 0.67 0.68 0.74 0.85 0.91 0.92 0.81 0.67 0.60 0.60 0.57 0.56 0.50 0.44 0.43 0.47 0.55 0.52 0.55 0.61 0.61 0.54 0.58 0.71 0.88 1.08 1.22 1.26
1.18 1.12 1.11 1.13 1.10 1.00 0.98 1.01 0.97 0.89 0.72 0.60 0.59 0.61 0.65 0.69 0.67 0.74 0.82 0.80 0.74 0.73 0.66 0.61 0.60 0.54 0.46 0.41 0.35 0.36 0.41 0.47 0.52 0.59 0.68 0.69 0.60 0.55 0.62 0.81 1.01 1.17 1.21
1.24 1.14 1.09 1.04 0.95 0.91 0.97 1.00 0.92 0.74 0.61 0.59 0.62 0.66 0.65 0.62 0.60 0.72 0.78 0.71 0.69 0.69 0.67 0.65 0.60 0.50 0.40 0.34 0.29 0.27 0.29 0.33 0.52 0.67 0.67 0.67 0.64 0.61 0.69 0.83 0.99 1.12 1.28
1.17 1.12 1.03 0.94 0.83 0.77 0.82 0.85 0.73 0.55 0.52 0.57 0.65 0.67 0.62 0.68 0.68 0.65 0.65 0.65 0.67 0.60 0.55 0.55 0.52 0.48 0.43 0.37 0.28 0.24 0.25 0.30 0.44 0.60 0.64 0.61 0.59 0.70 0.91 1.03 1.12 1.27 1.46
0.98 0.90 0.85 0.80 0.70 0.62 0.59 0.58 0.49 0.48 0.54 0.61 0.63 0.61 0.64 0.74 0.72 0.63 0.54 0.52 0.52 0.48 0.45 0.46 0.45 0.47 0.46 0.36 0.31 0.31 0.32 0.35 0.42 0.54 0.67 0.73 0.75 0.92 1.12 1.26 1.35 1.44 1.50
0.80 0.71 0.69 0.65 0.54 0.49 0.46 0.41 0.38 0.43 0.53 0.56 0.59 0.59 0.60 0.65 0.68 0.58 0.46 0.43 0.37 0.30 0.30 0.32 0.34 0.41 0.40 0.29 0.27 0.30 0.33 0.38 0.42 0.50 0.69 0.84 0.89 1.02 1.17 1.30 1.36 1.40 1.40
0.67 0.63 0.58 0.54 0.47 0.45 0.42 0.39 0.36 0.39 0.50 0.53 0.51 0.46 0.49 0.50 0.52 0.52 0.46 0.31 0.19 0.14 0.13 0.14 0.19 0.23 0.24 0.21 0.20 0.23 0.29 0.34 0.44 0.58 0.86 0.94 0.93 0.98 1.08 1.19 1.28 1.27 1.24